| time (UTC) | temp C | wind direction | speed KPH | gust KPH | rain 1hr cm | rain 24hr cm | rain mn cm | humidity % | barometer mb |
| 20260507155119 | 13 | 134 | 6.4 | 19.3 | 0.00 | 0.00 | 0.00 | 66 | 1015.4 |
| 20260507154101 | 13 | 147 | 9.7 | 19.3 | 0.00 | 0.00 | 0.00 | 65 | 1015.4 |
| 20260507151845 | 14 | 178 | 0.0 | 3.2 | 0.00 | 0.00 | 0.00 | 58 | 1015.4 |
| 20260507150820 | 14 | 178 | 0.0 | 1.6 | 0.00 | 0.00 | 0.00 | 59 | 1015.4 |
| 20260507145838 | 14 | 194 | 0.0 | 4.8 | 0.00 | 0.00 | 0.00 | 59 | 1015.4 |
| 20260507144853 | 15 | 180 | 0.0 | 4.8 | 0.00 | 0.00 | 0.00 | 58 | 1015.5 |
| 20260507143856 | 15 | 231 | 0.0 | 4.8 | 0.00 | 0.00 | 0.00 | 59 | 1015.5 |
| 20260507142841 | 15 | 254 | 0.0 | 4.8 | 0.00 | 0.00 | 0.00 | 58 | 1015.5 |
| 20260507141849 | 15 | 180 | 1.6 | 4.8 | 0.00 | 0.00 | 0.00 | 56 | 1015.5 |
| 20260507140910 | 15 | 251 | 1.6 | 4.8 | 0.00 | 0.00 | 0.00 | 59 | 1015.6 |
| 20260507135917 | 14 | 177 | 0.0 | 0.0 | 0.00 | 0.00 | 0.00 | 60 | 1015.7 |
| 20260507134933 | 14 | 176 | 0.0 | 0.0 | 0.00 | 0.00 | 0.00 | 59 | 1015.7 |
| 20260507133936 | 14 | 173 | 1.6 | 8.0 | 0.00 | 0.00 | 0.00 | 58 | 1015.7 |
| 20260507131819 | 15 | 266 | 1.6 | 9.7 | 0.00 | 0.00 | 0.00 | 56 | 1015.7 |
| 20260507130806 | 15 | 253 | 3.2 | 9.7 | 0.00 | 0.00 | 0.00 | 57 | 1015.8 |
| 20260507125819 | 15 | 142 | 3.2 | 11.3 | 0.00 | 0.00 | 0.00 | 56 | 1015.8 |
| 20260507123702 | 13 | 134 | 1.6 | 16.1 | 0.00 | 0.00 | 0.00 | 61 | 1015.8 |
| 20260507122652 | 13 | 188 | 3.2 | 16.1 | 0.00 | 0.00 | 0.00 | 63 | 1015.9 |
| 20260507121643 | 13 | 239 | 0.0 | 11.3 | 0.00 | 0.00 | 0.00 | 62 | 1015.9 |
| 20260507120611 | 13 | 244 | 3.2 | 11.3 | 0.00 | 0.00 | 0.00 | 63 | 1016.0 |
| 20260507115605 | 13 | 145 | 3.2 | 8.0 | 0.00 | 0.00 | 0.00 | 62 | 1016.1 |
| 20260507113525 | 14 | 111 | 6.4 | 16.1 | 0.00 | 0.00 | 0.00 | 59 | 1016.1 |
| 20260507112529 | 15 | 140 | 4.8 | 16.1 | 0.00 | 0.00 | 0.00 | 57 | 1016.1 |
| 20260507111512 | 15 | 215 | 6.4 | 16.1 | 0.00 | 0.00 | 0.00 | 61 | 1016.1 |
| 20260507110505 | 14 | 136 | 4.8 | 16.1 | 0.00 | 0.00 | 0.00 | 61 | 1016.2 |
| 20260507105442 | 14 | 144 | 6.4 | 14.5 | 0.00 | 0.00 | 0.00 | 61 | 1016.3 |
| 20260507104452 | 14 | 188 | 4.8 | 12.9 | 0.00 | 0.00 | 0.00 | 62 | 1016.3 |
| 20260507103510 | 14 | 155 | 4.8 | 12.9 | 0.00 | 0.00 | 0.00 | 61 | 1016.4 |
| 20260507102442 | 13 | 155 | 4.8 | 12.9 | 0.00 | 0.00 | 0.00 | 65 | 1016.4 |
| 20260507101452 | 12 | 136 | 3.2 | 12.9 | 0.00 | 0.00 | 0.00 | 65 | 1016.4 |
| 20260507100422 | 12 | 222 | 3.2 | 9.7 | 0.00 | 0.00 | 0.00 | 67 | 1016.4 |
| 20260507095425 | 12 | 191 | 4.8 | 12.9 | 0.00 | 0.00 | 0.00 | 69 | 1016.4 |
| 20260507094351 | 12 | 143 | 6.4 | 12.9 | 0.00 | 0.00 | 0.00 | 68 | 1016.5 |
| 20260507093321 | 12 | 127 | 6.4 | 12.9 | 0.00 | 0.00 | 0.00 | 68 | 1016.3 |
| 20260507092334 | 12 | 135 | 4.8 | 11.3 | 0.00 | 0.00 | 0.00 | 70 | 1016.3 |
| 20260507090134 | 11 | 147 | 6.4 | 11.3 | 0.00 | 0.00 | 0.00 | 70 | 1016.4 |
| 20260507085124 | 11 | 184 | 3.2 | 11.3 | 0.00 | 0.00 | 0.00 | 74 | 1016.4 |
| 20260507084120 | 11 | 184 | 1.6 | 8.0 | 0.00 | 0.00 | 0.00 | 73 | 1016.4 |
| 20260507083126 | 11 | 134 | 3.2 | 9.7 | 0.00 | 0.00 | 0.00 | 73 | 1016.4 |
| 20260507082059 | 11 | 169 | 4.8 | 12.9 | 0.00 | 0.00 | 0.00 | 72 | 1016.4 |
| 20260507081100 | 11 | 143 | 3.2 | 12.9 | 0.00 | 0.00 | 0.00 | 73 | 1016.4 |
| 20260507080122 | 11 | 159 | 4.8 | 12.9 | 0.00 | 0.00 | 0.00 | 75 | 1016.3 |
| 20260507075110 | 10 | 125 | 4.8 | 12.9 | 0.00 | 0.00 | 0.00 | 77 | 1016.3 |
| 20260507074103 | 10 | 169 | 3.2 | 11.3 | 0.00 | 0.00 | 0.00 | 80 | 1016.2 |
| 20260507073053 | 10 | 146 | 3.2 | 11.3 | 0.00 | 0.00 | 0.00 | 81 | 1016.1 |
| 20260507072115 | 9 | 150 | 3.2 | 11.3 | 0.00 | 0.00 | 0.00 | 80 | 1016.1 |
| 20260507071047 | 9 | 145 | 4.8 | 9.7 | 0.00 | 0.00 | 0.00 | 81 | 1016.0 |
| 20260507070048 | 8 | 136 | 4.8 | 9.7 | 0.00 | 0.00 | 0.00 | 83 | 1016.0 |
| 20260507065109 | 8 | 133 | 3.2 | 6.4 | 0.00 | 0.00 | 0.00 | 84 | 1016.0 |
| 20260507064127 | 8 | 147 | 3.2 | 6.4 | 0.00 | 0.00 | 0.00 | 86 | 1016.0 |
| 20260507061933 | 8 | 94 | 0.0 | 3.2 | 0.00 | 0.00 | 0.00 | 87 | 1016.0 |
| 20260507060925 | 8 | 62 | 0.0 | 0.0 | 0.00 | 0.03 | 0.00 | 87 | 1016.0 |
| 20260507055913 | 8 | 62 | 0.0 | 0.0 | 0.00 | 0.08 | 0.00 | 87 | 1015.9 |
| 20260507054925 | 8 | 61 | 0.0 | 0.0 | 0.00 | 0.08 | 0.00 | 87 | 1015.7 |
| 20260507053909 | 8 | 61 | 0.0 | 0.0 | 0.00 | 0.08 | 0.00 | 87 | 1015.7 |
| 20260507052853 | 7 | 61 | 0.0 | 0.0 | 0.00 | 0.08 | 0.00 | 87 | 1015.6 |
| 20260507051911 | 7 | 61 | 0.0 | 0.0 | 0.00 | 0.08 | 0.00 | 87 | 1015.5 |
| 20260507050902 | 7 | 61 | 0.0 | 0.0 | 0.00 | 0.08 | 0.00 | 87 | 1015.4 |
| 20260507044757 | 7 | 61 | 0.0 | 0.0 | 0.00 | 0.08 | 0.00 | 87 | 1015.4 |
| 20260507043754 | 7 | 61 | 0.0 | 0.0 | 0.00 | 0.08 | 0.00 | 87 | 1015.4 |
| 20260507042811 | 7 | 61 | 0.0 | 0.0 | 0.00 | 0.08 | 0.00 | 87 | 1015.3 |
| 20260507041816 | 7 | 61 | 0.0 | 0.0 | 0.00 | 0.08 | 0.00 | 87 | 1015.2 |
| 20260507040815 | 7 | 61 | 0.0 | 0.0 | 0.00 | 0.08 | 0.00 | 87 | 1015.2 |
| 20260507035828 | 7 | 61 | 0.0 | 0.0 | 0.00 | 0.08 | 0.00 | 87 | 1015.1 |
| 20260507034831 | 7 | 65 | 0.0 | 0.0 | 0.00 | 0.08 | 0.00 | 87 | 1015.2 |
| 20260507033839 | 7 | 65 | 0.0 | 0.0 | 0.00 | 0.08 | 0.00 | 87 | 1015.1 |
| 20260507032826 | 7 | 65 | 0.0 | 0.0 | 0.00 | 0.08 | 0.00 | 87 | 1015.1 |
| 20260507025422 | 7 | 65 | 0.0 | 0.0 | 0.00 | 0.08 | 0.00 | 86 | 1015.0 |
| 20260507024358 | 8 | 65 | 0.0 | 0.0 | 0.00 | 0.08 | 0.00 | 86 | 1014.9 |
| 20260507023340 | 8 | 65 | 0.0 | 0.0 | 0.00 | 0.08 | 0.00 | 86 | 1014.9 |
| 20260507022344 | 8 | 65 | 0.0 | 0.0 | 0.00 | 0.08 | 0.00 | 86 | 1014.9 |
| 20260507020156 | 8 | 65 | 0.0 | 0.0 | 0.00 | 0.08 | 0.00 | 85 | 1014.9 |
| 20260507014020 | 8 | 65 | 0.0 | 0.0 | 0.00 | 0.08 | 0.00 | 85 | 1014.8 |
| 20260507013011 | 8 | 65 | 0.0 | 0.0 | 0.00 | 0.08 | 0.00 | 85 | 1014.8 |
| 20260507012022 | 8 | 65 | 0.0 | 0.0 | 0.00 | 0.08 | 0.00 | 84 | 1014.8 |
| 20260507010949 | 8 | 65 | 0.0 | 0.0 | 0.00 | 0.08 | 0.00 | 85 | 1014.9 |
| 20260507005948 | 8 | 65 | 0.0 | 0.0 | 0.00 | 0.08 | 0.00 | 84 | 1014.9 |
| 20260507004956 | 8 | 65 | 0.0 | 0.0 | 0.00 | 0.08 | 0.00 | 84 | 1014.9 |
| 20260507004005 | 8 | 65 | 0.0 | 1.6 | 0.00 | 0.08 | 0.00 | 84 | 1014.9 |
| 20260507001836 | 8 | 65 | 0.0 | 0.0 | 0.00 | 0.08 | 0.00 | 83 | 1014.9 |
| 20260507000842 | 8 | 65 | 1.6 | 4.8 | 0.00 | 0.08 | 0.00 | 83 | 1015.0 |
| 20260506235840 | 8 | 63 | 1.6 | 8.0 | 0.00 | 0.08 | 0.00 | 83 | 1015.0 |
| 20260506233647 | 8 | 74 | 3.2 | 9.7 | 0.00 | 0.08 | 0.00 | 83 | 1015.0 |
| 20260506232707 | 8 | 94 | 3.2 | 9.7 | 0.00 | 0.08 | 0.00 | 83 | 1014.9 |
| 20260506231701 | 8 | 65 | 3.2 | 9.7 | 0.00 | 0.08 | 0.00 | 83 | 1014.9 |
| 20260506230659 | 8 | 69 | 3.2 | 9.7 | 0.00 | 0.08 | 0.00 | 83 | 1014.8 |
| 20260506225718 | 8 | 70 | 3.2 | 11.3 | 0.00 | 0.08 | 0.08 | 83 | 1014.9 |
| 20260506224655 | 8 | 87 | 3.2 | 11.3 | 0.00 | 0.08 | 0.08 | 83 | 1014.9 |
| 20260506223702 | 8 | 69 | 3.2 | 9.7 | 0.00 | 0.08 | 0.08 | 83 | 1015.0 |
| 20260506222723 | 8 | 55 | 3.2 | 9.7 | 0.00 | 0.08 | 0.08 | 83 | 1015.0 |
| 20260506221744 | 8 | 65 | 3.2 | 9.7 | 0.00 | 0.08 | 0.08 | 83 | 1014.9 |
| 20260506215629 | 8 | 61 | 3.2 | 11.3 | 0.00 | 0.08 | 0.08 | 83 | 1015.0 |
| 20260506213409 | 8 | 66 | 3.2 | 9.7 | 0.00 | 0.08 | 0.08 | 83 | 1014.8 |
| 20260506212412 | 8 | 82 | 4.8 | 12.9 | 0.00 | 0.08 | 0.08 | 83 | 1014.7 |
| 20260506211419 | 8 | 76 | 4.8 | 12.9 | 0.00 | 0.08 | 0.08 | 83 | 1014.6 |
| 20260506210349 | 8 | 57 | 4.8 | 12.9 | 0.00 | 0.08 | 0.08 | 83 | 1014.5 |
| 20260506205329 | 8 | 68 | 4.8 | 12.9 | 0.00 | 0.08 | 0.08 | 84 | 1014.5 |
| 20260506204343 | 8 | 86 | 4.8 | 12.9 | 0.00 | 0.08 | 0.08 | 84 | 1014.5 |
| 20260506203401 | 8 | 73 | 6.4 | 14.5 | 0.00 | 0.08 | 0.08 | 84 | 1014.5 |
| 20260506202331 | 8 | 70 | 6.4 | 14.5 | 0.00 | 0.08 | 0.08 | 84 | 1014.5 |
| 20260506201353 | 8 | 68 | 6.4 | 16.1 | 0.00 | 0.08 | 0.08 | 84 | 1014.4 |
| 20260506195206 | 8 | 38 | 6.4 | 16.1 | 0.00 | 0.08 | 0.08 | 85 | 1014.3 |
| 20260506194158 | 8 | 63 | 6.4 | 16.1 | 0.00 | 0.08 | 0.08 | 86 | 1014.2 |
| 20260506193153 | 8 | 49 | 4.8 | 12.9 | 0.00 | 0.08 | 0.08 | 86 | 1014.1 |
| 20260506190938 | 8 | 36 | 4.8 | 16.1 | 0.00 | 0.08 | 0.08 | 86 | 1014.0 |
| 20260506182537 | 8 | 53 | 4.8 | 16.1 | 0.00 | 0.08 | 0.08 | 87 | 1013.7 |
| 20260506181544 | 8 | 50 | 4.8 | 14.5 | 0.00 | 0.08 | 0.08 | 87 | 1013.6 |
| 20260506180520 | 8 | 49 | 4.8 | 12.9 | 0.00 | 0.08 | 0.08 | 87 | 1013.4 |
| 20260506175503 | 8 | 49 | 4.8 | 12.9 | 0.00 | 0.08 | 0.08 | 87 | 1013.3 |
| 20260506174447 | 8 | 65 | 3.2 | 16.1 | 0.00 | 0.08 | 0.08 | 87 | 1013.3 |
| 20260506173416 | 9 | 44 | 4.8 | 16.1 | 0.00 | 0.08 | 0.08 | 87 | 1013.3 |
| 20260506172348 | 9 | 22 | 4.8 | 12.9 | 0.00 | 0.08 | 0.08 | 87 | 1013.2 |
| 20260506171336 | 9 | 46 | 4.8 | 14.5 | 0.00 | 0.08 | 0.08 | 87 | 1013.2 |
| 20260506165232 | 9 | 67 | 8.0 | 17.7 | 0.00 | 0.08 | 0.08 | 86 | 1013.0 |
| 20260506164233 | 9 | 64 | 8.0 | 22.5 | 0.00 | 0.08 | 0.08 | 86 | 1013.0 |
| 20260506163227 | 10 | 69 | 12.9 | 22.5 | 0.00 | 0.08 | 0.08 | 86 | 1013.0 |
| 20260506161108 | 10 | 67 | 8.0 | 17.7 | 0.00 | 0.08 | 0.08 | 85 | 1013.0 |
| 20260506160113 | 10 | 38 | 8.0 | 22.5 | 0.00 | 0.08 | 0.08 | 85 | 1012.9 |